WA6MEM Weather Reports


Display with metric or nautical units.
time (UTC)temp
F
wind
direction
speed
MPH
gust
MPH
rain 1hr
in
rain 24hr
in
rain mn
in
humidity
%
barometer
mb
20260902191505 70 198 3.0 0.0 0.00 0.00 0.00 76 1014.8
20260902191004 70 184 3.0 0.0 0.00 0.00 0.00 74 1014.7
20260902190504 70 180 3.0 0.0 0.00 0.00 0.00 74 1014.7
20260902190004 70 117 3.0 0.0 0.00 0.00 0.00 74 1014.7
20260902185504 70 175 3.0 0.0 0.00 0.00 0.00 73 1014.7
20260902185006 70 198 3.0 0.0 0.00 0.00 0.00 73 1014.7
20260902184503 70 196 3.0 0.0 0.00 0.00 0.00 73 1014.7
20260902184003 70 115 3.0 0.0 0.00 0.00 0.00 72 1014.8
20260902183600 69 166 3.0 0.0 0.00 0.00 0.00 69 1014.8
20260902183100 70 128 3.0 0.0 0.00 0.00 0.00 72 1014.8
20260902182558 69 169 3.0 0.0 0.00 0.00 0.00 72 1014.8
20260902182058 69 165 3.0 0.0 0.00 0.00 0.00 75 1014.8
20260902181558 69 199 3.0 0.0 0.00 0.00 0.00 75 1014.8
20260902181056 69 175 2.0 0.0 0.00 0.00 0.00 76 1014.8
20260902180555 69 160 2.0 0.0 0.00 0.00 0.00 78 1014.8
20260902180056 68 159 2.0 0.0 0.00 0.00 0.00 80 1014.8
20260902175554 68 224 2.0 0.0 0.00 0.00 0.00 80 1015.0
20260902175054 68 184 2.0 0.0 0.00 0.00 0.00 80 1015.0
20260902174554 68 167 2.0 0.0 0.00 0.00 0.00 80 1015.0
20260902174053 68 163 2.0 0.0 0.00 0.00 0.00 80 1014.9
20260902173552 68 157 3.0 0.0 0.00 0.00 0.00 82 1014.9
20260902173051 67 150 2.0 0.0 0.00 0.00 0.00 83 1014.9
20260902172549 67 208 2.0 0.0 0.00 0.00 0.00 81 1014.8
20260902172051 67 230 2.0 0.0 0.00 0.00 0.00 82 1014.8
20260902171603 67 224 2.0 0.0 0.00 0.00 0.00 83 1014.8
20260902171048 67 183 2.0 0.0 0.00 0.00 0.00 82 1014.7
20260902170549 67 265 2.0 0.0 0.00 0.00 0.00 82 1014.7
20260902170048 67 172 2.0 0.0 0.00 0.00 0.00 83 1014.7
20260902165546 66 196 1.0 0.0 0.00 0.00 0.00 85 1014.6
20260902165045 66 115 1.0 0.0 0.00 0.00 0.00 86 1014.6
20260902164543 65 92 1.0 0.0 0.00 0.00 0.00 86 1014.6
20260902164045 65 189 2.0 0.0 0.00 0.00 0.00 87 1014.8
20260902163540 64 202 2.0 0.0 0.00 0.00 0.00 88 1014.8
20260902163040 64 186 2.0 0.0 0.00 0.00 0.00 89 1014.8
20260902162538 64 185 2.0 0.0 0.00 0.00 0.00 89 1014.7
20260902162038 63 188 2.0 0.0 0.00 0.00 0.00 90 1014.7
20260902161537 63 173 1.0 0.0 0.00 0.00 0.00 90 1014.7
20260902161037 63 188 1.0 0.0 0.00 0.00 0.00 90 1014.7
20260902160536 63 149 1.0 0.0 0.00 0.00 0.00 90 1014.7
20260902160046 63 175 1.0 0.0 0.00 0.00 0.00 91 1014.7
20260902155536 63 187 1.0 0.0 0.00 0.00 0.00 91 1014.5
20260902155040 63 44 1.0 0.0 0.00 0.00 0.00 92 1014.5
20260902154535 62 147 1.0 0.0 0.00 0.00 0.00 92 1014.5
20260902154034 62 130 1.0 0.0 0.00 0.00 0.00 93 1014.5
20260902153533 62 126 1.0 0.0 0.00 0.00 0.00 93 1014.5
20260902153034 62 176 1.0 0.0 0.00 0.00 0.00 94 1014.5
20260902152532 62 138 1.0 0.0 0.00 0.00 0.00 94 1014.5
20260902152032 62 188 1.0 0.0 0.00 0.00 0.00 94 1014.5
20260902151531 62 165 1.0 0.0 0.00 0.00 0.00 95 1014.5
20260902151034 62 200 1.0 0.0 0.00 0.00 0.00 95 1014.6
20260902150530 61 169 2.0 0.0 0.00 0.00 0.00 95 1014.6
20260902150029 61 205 1.0 0.0 0.00 0.00 0.00 95 1014.6
20260902145529 61 200 1.0 0.0 0.00 0.00 0.00 96 1014.6
20260902145031 61 169 1.0 0.0 0.00 0.00 0.00 96 1014.6
20260902144528 61 197 1.0 0.0 0.00 0.00 0.00 96 1014.6
20260902144027 61 202 1.0 0.0 0.00 0.00 0.00 96 1014.5
20260902143527 61 159 1.0 0.0 0.00 0.00 0.00 96 1014.5
20260902143027 60 219 1.0 0.0 0.00 0.00 0.00 96 1014.5
20260902142526 60 172 0.0 0.0 0.00 0.00 0.00 96 1014.3
20260902142026 60 144 0.0 0.0 0.00 0.00 0.00 96 1014.3
20260902141526 60 65 0.0 0.0 0.00 0.00 0.00 96 1014.3
20260902141027 59 65 0.0 0.0 0.00 0.00 0.00 96 1014.2
20260902140526 59 65 0.0 0.0 0.00 0.00 0.00 96 1014.2
20260902140034 59 65 0.0 0.0 0.00 0.00 0.00 96 1014.2
20260902135524 58 65 0.0 0.0 0.00 0.00 0.00 96 1014.1
20260902135024 58 65 0.0 0.0 0.00 0.00 0.00 96 1014.1
20260902134524 58 65 0.0 0.0 0.00 0.00 0.00 95 1014.1
20260902134023 58 65 0.0 0.0 0.00 0.00 0.00 95 1014.0
20260902133523 58 65 0.0 0.0 0.00 0.00 0.00 96 1014.0
20260902133023 58 65 0.0 0.0 0.00 0.00 0.00 95 1014.0
20260902132522 58 65 0.0 0.0 0.00 0.00 0.00 95 1013.9
20260902132022 59 65 0.0 0.0 0.00 0.00 0.00 95 1013.9
20260902131522 59 65 1.0 0.0 0.00 0.00 0.00 96 1013.9
20260902131026 59 65 1.0 0.0 0.00 0.00 0.00 96 1013.7
20260902130523 59 63 1.0 0.0 0.00 0.00 0.00 96 1013.7
20260902130022 59 79 1.0 0.0 0.00 0.00 0.00 96 1013.7
20260902125522 58 109 1.0 0.0 0.00 0.00 0.00 96 1013.5
20260902125023 58 57 1.0 0.0 0.00 0.00 0.00 96 1013.5
20260902124522 58 36 2.0 0.0 0.00 0.00 0.00 96 1013.5
20260902124021 58 35 2.0 0.0 0.00 0.00 0.00 96 1013.7
20260902123520 58 30 1.0 0.0 0.00 0.00 0.00 95 1013.7
20260902123025 58 37 1.0 0.0 0.00 0.00 0.00 95 1013.7
20260902122520 58 55 1.0 0.0 0.00 0.00 0.00 95 1013.7
20260902122019 58 31 2.0 0.0 0.00 0.00 0.00 95 1013.7
20260902121519 58 48 1.0 0.0 0.00 0.00 0.00 95 1013.7
20260902121019 58 55 0.0 0.0 0.00 0.00 0.00 95 1013.8
20260902120519 58 195 0.0 0.0 0.00 0.00 0.00 95 1013.8
20260902120019 58 195 0.0 0.0 0.00 0.00 0.00 95 1013.8
20260902115522 58 195 0.0 0.0 0.00 0.00 0.00 95 1013.8
20260902115018 58 195 0.0 0.0 0.00 0.00 0.00 95 1013.8
20260902114518 58 195 0.0 0.0 0.00 0.00 0.00 95 1013.8
20260902114023 59 195 0.0 0.0 0.00 0.00 0.00 95 1013.7
20260902113517 59 195 0.0 0.0 0.00 0.00 0.00 95 1013.7
20260902113017 59 195 0.0 0.0 0.00 0.00 0.00 95 1013.7
20260902112517 59 195 0.0 0.0 0.00 0.00 0.00 95 1013.9
20260902112017 59 195 0.0 0.0 0.00 0.00 0.00 95 1013.9
20260902111534 59 195 0.0 0.0 0.00 0.00 0.00 95 1013.9
20260902111016 59 195 0.0 0.0 0.00 0.00 0.00 95 1013.6
20260902110516 59 195 0.0 0.0 0.00 0.00 0.00 95 1013.6
20260902110043 59 195 0.0 0.0 0.00 0.00 0.00 94 1013.6
20260902105515 59 195 0.0 0.0 0.00 0.00 0.00 95 1013.7
20260902105015 59 195 0.0 0.0 0.00 0.00 0.00 95 1013.7
20260902104520 59 195 0.0 0.0 0.00 0.00 0.00 95 1013.7
20260902104016 59 195 0.0 0.0 0.00 0.00 0.00 94 1013.7
20260902103514 58 195 0.0 0.0 0.00 0.00 0.00 94 1013.7
20260902103014 58 195 0.0 0.0 0.00 0.00 0.00 94 1013.7
20260902102518 58 195 0.0 0.0 0.00 0.00 0.00 94 1013.7
20260902102013 58 195 0.0 0.0 0.00 0.00 0.00 94 1013.7
20260902101513 59 195 0.0 0.0 0.00 0.00 0.00 94 1013.7
20260902101013 59 195 0.0 0.0 0.00 0.00 0.00 94 1013.7
20260902100517 59 195 0.0 0.0 0.00 0.00 0.00 94 1013.7
20260902100015 59 195 0.0 0.0 0.00 0.00 0.00 94 1013.7
20260902095512 59 195 0.0 0.0 0.00 0.00 0.00 94 1013.7
20260902095012 59 195 0.0 0.0 0.00 0.00 0.00 93 1013.7
20260902094512 59 195 0.0 0.0 0.00 0.00 0.00 93 1013.7
20260902094012 59 195 0.0 0.0 0.00 0.00 0.00 93 1013.7
20260902093511 59 195 0.0 0.0 0.00 0.00 0.00 93 1013.7
20260902093010 59 195 0.0 0.0 0.00 0.00 0.00 93 1013.7
20260902092510 59 195 0.0 0.0 0.00 0.00 0.00 93 1013.9
20260902092012 59 195 0.0 0.0 0.00 0.00 0.00 93 1013.9
20260902091510 59 195 0.0 0.0 0.00 0.00 0.00 93 1013.9
20260902091011 59 195 0.0 0.0 0.00 0.00 0.00 93 1014.0
20260902090509 59 195 0.0 0.0 0.00 0.00 0.00 93 1014.0
20260902090009 59 195 0.0 0.0 0.00 0.00 0.00 93 1014.0
20260902085508 59 195 0.0 0.0 0.00 0.00 0.00 93 1014.0
20260902085008 59 195 0.0 0.0 0.00 0.00 0.00 93 1014.0
20260902084508 59 195 0.0 0.0 0.00 0.00 0.00 93 1014.0
20260902084010 59 195 0.0 0.0 0.00 0.00 0.00 93 1014.1
20260902083511 59 195 0.0 0.0 0.00 0.00 0.00 93 1014.1
20260902083009 59 195 1.0 0.0 0.00 0.00 0.00 93 1014.1
20260902082508 60 195 1.0 0.0 0.00 0.00 0.00 93 1014.1
20260902082006 60 195 1.0 0.0 0.00 0.00 0.00 92 1014.1
20260902081506 60 195 1.0 0.0 0.00 0.00 0.00 92 1014.1
20260902081005 60 195 0.0 0.0 0.00 0.00 0.00 92 1014.1
20260902080505 60 159 0.0 0.0 0.00 0.00 0.00 92 1014.1
20260902080004 60 159 0.0 0.0 0.00 0.00 0.00 92 1014.1
20260902075504 60 159 0.0 0.0 0.00 0.00 0.00 92 1014.1
20260902075004 60 159 0.0 0.0 0.00 0.00 0.00 92 1014.1
20260902074504 60 159 0.0 0.0 0.00 0.00 0.00 92 1014.1
20260902074005 60 159 0.0 0.0 0.00 0.00 0.00 92 1013.7
20260902073503 60 159 1.0 0.0 0.00 0.00 0.00 92 1013.7
20260902073003 60 190 1.0 0.0 0.00 0.00 0.00 92 1013.7
20260902072503 60 157 1.0 0.0 0.00 0.00 0.00 92 1013.7
20260902072003 60 161 1.0 0.0 0.00 0.00 0.00 91 1013.7
20260902071502 60 169 0.0 0.0 0.00 0.00 0.00 91 1013.7
20260902071004 60 211 0.0 0.0 0.00 0.00 0.00 91 1013.7
20260902070503 60 211 1.0 0.0 0.00 0.00 0.00 91 1013.7
20260902070000 61 197 1.0 0.0 0.00 0.00 0.01 91 1013.7
20260902065603 61 196 1.0 0.0 0.00 0.00 0.01 91 1013.6
20260902065100 61 188 2.0 0.0 0.00 0.00 0.01 91 1013.6
20260902064600 61 169 2.0 0.0 0.00 0.00 0.01 91 1013.6
20260902064101 61 163 2.0 0.0 0.00 0.00 0.01 91 1013.6
20260902063559 61 178 2.0 0.0 0.00 0.00 0.01 91 1013.6
20260902063104 60 163 1.0 0.0 0.00 0.00 0.01 91 1013.6
20260902062600 61 194 2.0 0.0 0.00 0.00 0.01 91 1013.6
20260902062059 61 182 2.0 0.0 0.00 0.00 0.01 91 1013.6
20260902061613 61 234 2.0 0.0 0.00 0.00 0.01 91 1013.6
20260902061059 61 160 2.0 0.0 0.00 0.00 0.01 91 1013.6
20260902060602 61 192 2.0 0.0 0.00 0.00 0.01 90 1013.6
20260902060059 61 182 2.0 0.0 0.00 0.00 0.01 90 1013.6
20260902055603 61 196 2.0 0.0 0.00 0.00 0.01 90 1013.5
20260902055059 61 198 2.0 0.0 0.00 0.00 0.01 90 1013.5
20260902054559 61 195 3.0 0.0 0.00 0.00 0.01 90 1013.5
20260902054059 61 156 3.0 0.0 0.00 0.00 0.01 90 1013.3
20260902053601 61 169 3.0 0.0 0.00 0.00 0.01 90 1013.3
20260902053058 61 187 3.0 0.0 0.00 0.00 0.01 90 1013.3
20260902052601 61 159 3.0 0.0 0.00 0.00 0.01 89 1013.5
20260902052057 61 175 2.0 0.0 0.00 0.00 0.01 89 1013.5
20260902051600 61 186 2.0 0.0 0.00 0.00 0.01 89 1013.5
20260902051057 61 192 2.0 0.0 0.00 0.00 0.01 88 1013.6
20260902050557 62 187 1.0 0.0 0.00 0.00 0.01 88 1013.6
20260902050057 62 196 1.0 0.0 0.00 0.00 0.01 87 1013.6
20260902045601 62 167 2.0 0.0 0.00 0.00 0.01 87 1013.5
20260902045057 62 188 2.0 0.0 0.00 0.00 0.01 86 1013.5
20260902044557 62 182 1.0 0.0 0.00 0.00 0.01 86 1013.5
20260902044057 62 158 1.0 0.0 0.00 0.00 0.01 85 1013.3
20260902043558 62 198 2.0 0.0 0.00 0.00 0.01 85 1013.3
20260902043103 62 246 2.0 0.0 0.00 0.00 0.01 85 1013.3
20260902042556 62 300 2.0 0.0 0.00 0.00 0.01 85 1013.1
20260902042056 62 267 2.0 0.0 0.00 0.00 0.01 84 1013.1
20260902041555 62 301 3.0 0.0 0.00 0.00 0.01 85 1013.1
20260902041056 62 175 4.0 0.0 0.00 0.00 0.01 86 1013.0
20260902040558 62 267 4.0 0.0 0.00 0.00 0.01 88 1013.0
20260902040055 61 208 4.0 0.0 0.00 0.00 0.01 89 1013.0
20260902035556 61 236 3.0 0.0 0.00 0.00 0.01 90 1012.8
20260902035055 61 181 3.0 0.0 0.00 0.00 0.01 90 1012.8
20260902034555 62 273 3.0 0.0 0.00 0.00 0.01 90 1012.8
20260902034054 62 267 4.0 0.0 0.00 0.00 0.01 91 1012.5
20260902033554 62 262 4.0 0.0 0.00 0.00 0.01 91 1012.5
20260902033106 62 209 4.0 0.0 0.00 0.00 0.01 91 1012.5
20260902032554 62 207 3.0 0.0 0.00 0.00 0.01 91 1012.5
20260902032054 62 229 3.0 0.0 0.00 0.00 0.01 90 1012.5
20260902031554 62 281 4.0 0.0 0.00 0.00 0.01 90 1012.5
20260902031054 62 269 3.0 0.0 0.00 0.00 0.01 90 1012.4
20260902030556 62 236 3.0 0.0 0.00 0.00 0.01 90 1012.4
20260902030053 62 172 2.0 0.0 0.00 0.00 0.01 90 1012.4
20260902025554 62 198 3.0 0.0 0.00 0.00 0.01 89 1012.4
20260902025054 62 207 2.0 0.0 0.00 0.00 0.01 89 1012.4
20260902024555 62 206 2.0 0.0 0.00 0.00 0.01 88 1012.4
20260902024053 62 214 2.0 0.0 0.00 0.00 0.01 87 1012.3
20260902023552 62 189 1.0 0.0 0.00 0.00 0.01 86 1012.3
20260902023054 62 177 1.0 0.0 0.00 0.00 0.01 86 1012.3
20260902022553 62 192 2.0 0.0 0.00 0.00 0.01 85 1012.3
20260902022052 63 201 2.0 0.0 0.00 0.00 0.01 85 1012.3
20260902021557 63 209 2.0 0.0 0.00 0.00 0.01 85 1012.3
20260902021052 63 172 2.0 0.0 0.00 0.00 0.01 84 1012.4
20260902020554 63 225 2.0 0.0 0.00 0.00 0.01 84 1012.4
20260902020052 64 215 2.0 0.0 0.00 0.00 0.01 84 1012.4
20260902015556 64 181 2.0 0.0 0.00 0.00 0.01 84 1012.3
20260902015052 64 211 2.0 0.0 0.00 0.00 0.01 84 1012.3
20260902014552 64 184 3.0 0.0 0.00 0.00 0.01 84 1012.3
20260902014052 65 205 3.0 0.0 0.00 0.00 0.01 83 1012.3
20260902013551 65 214 2.0 0.0 0.00 0.00 0.01 83 1012.3
20260902013051 66 202 3.0 0.0 0.00 0.00 0.01 82 1012.3
20260902012550 66 174 3.0 0.0 0.00 0.00 0.01 81 1012.2
20260902012050 66 205 2.0 0.0 0.00 0.00 0.01 81 1012.2
20260902011551 67 233 2.0 0.0 0.00 0.00 0.01 80 1012.2
20260902011051 67 199 3.0 0.0 0.00 0.00 0.01 80 1012.4
20260902010550 67 208 3.0 0.0 0.00 0.00 0.01 80 1012.4
20260902010051 67 222 3.0 0.0 0.00 0.00 0.01 80 1012.4
20260902005550 67 215 3.0 0.0 0.00 0.00 0.01 80 1012.5
20260902005052 67 205 3.0 0.0 0.00 0.00 0.01 80 1012.5
20260902004550 68 230 3.0 0.0 0.00 0.00 0.01 79 1012.5
20260902004050 68 254 3.0 0.0 0.00 0.00 0.01 76 1012.5
20260902003549 68 231 3.0 0.0 0.00 0.00 0.01 76 1012.5
20260902003049 69 297 3.0 0.0 0.00 0.00 0.01 75 1012.5
20260902002550 69 228 3.0 0.0 0.00 0.00 0.01 75 1012.5
20260902002050 69 200 3.0 0.0 0.00 0.00 0.01 75 1012.5
20260902001549 70 209 3.0 0.0 0.00 0.00 0.01 74 1012.5
20260902001052 70 244 3.0 0.0 0.00 0.00 0.01 74 1012.6
20260902000549 70 192 2.0 0.0 0.00 0.00 0.01 72 1012.6
20260902000053 70 229 3.0 0.0 0.00 0.00 0.01 73 1012.6
20260901235549 70 252 4.0 0.0 0.00 0.00 0.01 71 1012.7
20260901235049 70 216 3.0 0.0 0.00 0.00 0.01 72 1012.7
20260901234557 70 254 3.0 0.0 0.00 0.00 0.01 73 1012.7
20260901234048 70 255 3.0 0.0 0.00 0.00 0.01 73 1012.6
20260901233548 71 227 3.0 0.0 0.00 0.00 0.01 71 1012.6
20260901233048 71 223 3.0 0.0 0.00 0.00 0.01 71 1012.6
20260901232550 70 196 3.0 0.0 0.00 0.00 0.01 66 1012.6
20260901232048 70 232 3.0 0.0 0.00 0.00 0.01 72 1012.6
20260901231548 70 215 3.0 0.0 0.00 0.00 0.01 72 1012.6
20260901231047 71 250 4.0 0.0 0.00 0.00 0.01 71 1012.7
20260901230547 71 297 4.0 0.0 0.00 0.00 0.01 71 1012.7
20260901230048 72 232 4.0 0.0 0.00 0.00 0.01 70 1012.7
20260901225546 72 240 5.0 0.0 0.00 0.00 0.01 69 1012.7
20260901225047 72 211 4.0 0.0 0.00 0.00 0.01 68 1012.7
20260901224547 72 205 4.0 0.0 0.00 0.00 0.01 65 1012.7
20260901224049 73 191 4.0 0.0 0.00 0.00 0.01 66 1012.8
20260901223546 72 166 4.0 0.0 0.00 0.00 0.01 66 1012.8
20260901223046 72 208 4.0 0.0 0.00 0.00 0.01 64 1012.8
20260901222545 72 215 4.0 0.0 0.00 0.00 0.01 65 1013.0
20260901222045 72 205 4.0 0.0 0.00 0.00 0.01 64 1013.0
20260901221614 72 186 4.0 0.0 0.00 0.00 0.01 66 1013.0
20260901221045 72 203 4.0 0.0 0.00 0.00 0.01 65 1013.1
20260901220545 73 228 4.0 0.0 0.00 0.00 0.01 64 1013.1
20260901220044 73 200 4.0 0.0 0.00 0.00 0.01 64 1013.1
20260901215543 73 198 4.0 0.0 0.00 0.00 0.01 67 1013.1
20260901215048 72 229 4.0 0.0 0.00 0.00 0.01 67 1013.1
20260901214542 72 222 4.0 0.0 0.00 0.00 0.01 68 1013.1
20260901214043 72 207 4.0 0.0 0.00 0.00 0.01 72 1013.2
20260901213541 72 156 4.0 0.0 0.00 0.00 0.01 72 1013.2
20260901213059 72 192 4.0 0.0 0.00 0.00 0.01 72 1013.2
20260901212541 72 202 4.0 0.0 0.00 0.00 0.01 71 1013.4
20260901212041 72 221 4.0 0.0 0.00 0.00 0.01 71 1013.4
20260901211545 72 165 3.0 0.0 0.00 0.00 0.01 73 1013.4
20260901211041 72 277 4.0 0.0 0.00 0.00 0.01 72 1013.4
20260901210541 72 173 5.0 0.0 0.00 0.00 0.01 72 1013.4
20260901210041 72 201 4.0 0.0 0.00 0.00 0.01 72 1013.4
20260901205542 72 212 4.0 0.0 0.00 0.00 0.01 72 1013.6
20260901205039 72 171 4.0 0.0 0.00 0.00 0.01 71 1013.6
20260901204540 73 194 3.0 0.0 0.00 0.00 0.01 71 1013.6
20260901204039 73 198 3.0 0.0 0.00 0.00 0.01 71 1013.6
20260901203538 72 244 3.0 0.0 0.00 0.00 0.01 72 1013.6
20260901203044 72 168 3.0 0.0 0.00 0.00 0.01 72 1013.6
20260901202537 72 202 3.0 0.0 0.00 0.00 0.01 75 1013.9
20260901202038 72 213 3.0 0.0 0.00 0.00 0.01 74 1013.9
20260901201537 72 234 3.0 0.0 0.00 0.00 0.01 74 1013.9
20260901201036 72 159 3.0 0.0 0.00 0.00 0.01 75 1014.1
20260901200534 71 123 3.0 0.0 0.00 0.00 0.01 75 1014.1
20260901200043 71 218 3.0 0.0 0.00 0.00 0.01 74 1014.1
20260901195536 71 255 3.0 0.0 0.00 0.00 0.01 76 1014.2
20260901195038 71 185 3.0 0.0 0.00 0.00 0.01 74 1014.2
20260901194532 71 221 3.0 0.0 0.00 0.00 0.01 74 1014.2
20260901194032 70 190 3.0 0.0 0.00 0.00 0.01 76 1014.3
20260901193531 70 180 3.0 0.0 0.00 0.00 0.01 76 1014.3
20260901193031 70 165 3.0 0.0 0.00 0.00 0.01 76 1014.3
20260901192530 71 153 3.0 0.0 0.00 0.00 0.01 77 1014.3
20260901192032 71 148 3.0 0.0 0.00 0.00 0.01 77 1014.3